Location: *
(40.7873°S, 98.7174°E)
Time: 00:41:34
(UTC+00:00)

ARIANE 6 FM1 Upper Stage - Pass Details

Date: 20 December 2025
Orbit: 522 x 610 km, 62.0° (Epoch: 20 January)

Event Time Altitude Azimuth Distance (km) Brightness Sun altitude
Rises 17:10:56 0° 209° (SSW) 2,911 7.3 -25.7°
Reaches altitude 10° 17:13:35 10° 195° (SSW) 1,996 6.4 -25.7°
Maximum altitude 17:17:22 26° 138° (SE) 1,232 4.8 -25.8°
Enters shadow 17:19:32 18° 97° (E) 1,513 4.9 -25.8°
